Вернуться в каталог

DELTA 1 DEB

АктивенSSO
NORAD 21387·DEBRIS·🇺🇸 United States

Запущен Jun 12, 1975 с Vandenberg Space Force Base

Loading…

Ближайшие Пролёты (ближайшие 24 часа)

TLE

СвежийSource: Space-Track

Эпоха: Sep 14, 2026, 07:10 UTC

1 21387U 75052DH  26257.29862938  .00000167  00000-0  34391-3 0  9996
2 21387  99.4892 183.1563 0048431  40.5469 110.8875 13.46401683731691

Отслеживайте DELTA 1 DEB в реальном времени с AllMySat

Download on the App Store